Location: Cutler
(25.6150°N, 80.3110°W)
Time: 10:42:53
(UTC-05:00)

Tiangong 1 - Pass Details

Date: 19 November 2017
Orbit: 285 x 308 km, 42.8° (Epoch: 21 November)

Event Time Altitude Azimuth Distance (km) Brightness Sun altitude
Rises 18:38:30 0° 198° (SSW) 1,970 5.1 -15.2°
Reaches altitude 10° 18:41:09 10° 167° (SSE) 1,146 3.5 -15.8°
Enters shadow 18:41:39 12° 156° (SSE) 1,060 3.2 -15.9°
